This demonstration page uses our WeatherBlox Daily Observations layout. Learn more.

Left ArrowRight Arrow

Hourly Observations for June 5, 2016

Temp ( °F °C ) Dew Point ( °F °C ) Humidity (%) Winds ( mph kmh ) Pressure ( in mb ) Visibility ( mi km ) Precip ( " mm )
12:54 am 00:54 Clear 65 18.3 55 12.8 70 70 NNW 6 9 29.95 1014 10 16.0934 0 0
1:54 am 01:54 Clear 63 17.2 54 12.2 73 73 NNW 6 9 29.94 1014 10 16.0934 0 0
2:54 am 02:54 Clear 63 17.2 53 11.7 70 70 NW 7 11 29.95 1014 10 16.0934 0 0
3:54 am 03:54 Clear 62 16.7 51 10.6 67 67 NNW 8 13 29.94 1014 10 16.0934 0 0
4:54 am 04:54 Clear 62 16.7 51 10.6 67 67 NW 8 13 29.94 1014 10 16.0934 0 0
5:54 am 05:54 Clear 61 16.1 51 10.6 70 70 NW 8 13 29.96 1014 10 16.0934 0 0
6:54 am 06:54 Sunny 62 16.7 51 10.6 67 67 NNW 7 11 29.97 1015 10 16.0934 0 0
7:54 am 07:54 Sunny 67 19.4 53 11.7 61 61 NNW 9 15 29.97 1015 10 16.0934 0 0
8:54 am 08:54 Sunny 71 21.7 53 11.7 53 53 NW 9 15 29.98 1015 10 16.0934 0 0
9:54 am 09:54 Sunny 75 23.9 52 11.1 45 45 WNW 10 17 29.97 1015 10 16.0934 0 0
10:54 am 10:54 Sunny 78 25.6 51 10.6 39 39 WNW 13 20 29.96 1015 10 16.0934 0 0
11:54 am 11:54 Sunny 81 27.2 50 10 34 34 NW 14 22 29.96 1014 10 16.0934 0 0
12:54 pm 12:54 Sunny 83 28.3 46 7.8 27 27 NNW 9 15 29.94 1014 10 16.0934 0 0
1:54 pm 13:54 Sunny 85 29.4 46 7.8 26 26 W 15 24 29.92 1013 10 16.0934 0 0
2:54 pm 14:54 Sunny 86 30 46 7.8 25 25 N 8 13 29.91 1013 10 16.0934 0 0
3:54 pm 15:54 Sunny 87 30.6 42 5.6 21 21 WNW 6 9 29.89 1012 10 16.0934 0 0
4:54 pm 16:54 Sunny 88 31.1 43 6.1 21 21 NW 12 19 29.87 1012 10 16.0934 0 0
5:54 pm 17:54 Sunny 88 31.1 44 6.7 22 22 NNW 10 17 29.86 1011 10 16.0934 0 0
6:54 pm 18:54 Sunny 87 30.6 44 6.7 22 22 WNW 9 15 29.85 1011 10 16.0934 0 0
7:54 pm 19:54 Sunny 85 29.4 45 7.2 25 25 W 7 11 29.84 1011 10 16.0934 0 0
8:54 pm 20:54 Sunny 80 26.7 48 8.9 33 33 W 6 9 29.83 1010 10 16.0934 0 0
9:54 pm 21:54 Clear 76 24.4 49 9.4 39 39 WSW 6 9 29.84 1011 10 16.0934 0 0
10:54 pm 22:54 Clear 73 22.8 48 8.9 41 41 W 7 11 29.85 1011 10 16.0934 0 0
11:54 pm 23:54 Clear 72 22.2 48 8.9 43 43 W 5 7 29.85 1011 10 16.0934 0 0

Powered by AerisWeather